Date,TemperatureHighF,TemperatureAvgF,TemperatureLowF,DewpointHighF,DewpointAvgF,DewpointLowF,HumidityHigh,HumidityAvg,HumidityLow,PressureMaxIn,PressureMinIn,WindSpeedMaxMPH,WindSpeedAvgMPH,GustSpeedMaxMPH,PrecipitationSumIn
2013-3-1,38,36,31,-100,-100,-100,0,0,100,0.00,40.00,0,-999,0,0.00
2013-3-2,35,32,30,-100,-100,-100,0,0,100,0.00,40.00,0,-999,0,0.00
2013-3-3,45,35,26,-100,-100,-100,0,0,100,0.00,40.00,0,-999,0,0.00
2013-3-4,60,49,38,-100,-100,-100,0,0,100,0.00,40.00,0,-999,0,0.00
2013-3-5,58,46,37,-100,-100,-100,0,0,100,0.00,40.00,0,-999,0,0.00
2013-3-6,46,38,32,-100,-100,-100,0,0,100,0.00,40.00,0,-999,0,0.00
2013-3-7,51,43,35,-100,-100,-100,0,0,100,0.00,40.00,0,-999,0,0.00
2013-3-8,57,45,36,-100,-100,-100,0,0,100,0.00,40.00,0,-999,0,0.00
2013-3-9,68,59,48,-100,-100,-100,0,0,100,0.00,40.00,0,-999,0,0.00
2013-3-10,61,56,47,-100,-100,-100,0,0,100,0.00,40.00,0,-999,0,0.00
2013-3-11,50,43,37,-100,-100,-100,0,0,100,0.00,40.00,0,-999,0,0.00
2013-3-12,57,44,34,-100,-100,-100,0,0,100,0.00,40.00,0,-999,0,0.00
2013-3-13,52,44,36,-100,-100,-100,0,0,100,0.00,40.00,0,-999,0,0.00
2013-3-14,62,46,35,-100,-100,-100,0,0,100,0.00,40.00,0,-999,0,0.00
2013-3-15,76,60,47,-100,-100,-100,0,0,100,0.00,40.00,0,-999,0,0.00
2013-3-16,76,64,53,-100,-100,-100,0,0,100,0.00,40.00,0,-999,0,0.00
2013-3-17,51,46,43,-100,-100,-100,0,0,100,0.00,40.00,0,-999,0,0.00
2013-3-18,55,48,44,-100,-100,-100,0,0,100,0.00,40.00,0,-999,0,0.00
2013-3-19,53,46,39,-100,-100,-100,0,0,100,0.00,40.00,0,-999,0,0.00
2013-3-20,54,45,36,-100,-100,-100,0,0,100,0.00,40.00,0,-999,0,0.00
2013-3-21,44,37,30,-100,-100,-100,0,0,100,0.00,40.00,0,-999,0,0.00
2013-3-22,44,38,32,-100,-100,-100,0,0,100,0.00,40.00,0,-999,0,0.00
2013-3-23,49,46,41,-100,-100,-100,0,0,100,0.00,40.00,0,-999,0,0.00
2013-3-24,47,43,37,-100,-100,-100,0,0,100,0.00,40.00,0,-999,0,0.00
2013-3-25,41,36,31,-100,-100,-100,0,0,100,0.00,40.00,0,-999,0,0.00
2013-3-26,47,39,31,-100,-100,-100,0,0,100,0.00,40.00,0,-999,0,0.00
2013-3-27,54,44,32,-100,-100,-100,0,0,100,0.00,40.00,0,-999,0,0.00
2013-3-28,66,53,40,-100,-100,-100,0,0,100,0.00,40.00,0,-999,0,0.00
2013-3-29,58,54,47,-100,-100,-100,0,0,100,0.00,40.00,0,-999,0,0.00
2013-3-30,58,53,51,-100,-100,-100,0,0,100,0.00,40.00,0,-999,0,0.00
2013-3-31,62,56,52,-100,-100,-100,0,0,100,0.00,40.00,0,-999,0,0.00